Year,Month,Day,Hour,Minute,Value (Times are PST for barometer in hPa)
2014,02,12,00,00,995.94
2014,02,12,00,01,995.87
2014,02,12,00,02,995.80
2014,02,12,00,03,995.73
2014,02,12,00,04,995.67
2014,02,12,00,05,995.63
2014,02,12,00,06,995.60
2014,02,12,00,07,995.53
2014,02,12,00,08,995.46
2014,02,12,00,09,995.43
2014,02,12,00,10,995.36
2014,02,12,00,11,995.43
2014,02,12,00,12,995.29
2014,02,12,00,13,995.23
2014,02,12,00,14,995.16
2014,02,12,00,15,995.16
2014,02,12,00,16,995.06
2014,02,12,00,17,995.02
2014,02,12,00,18,994.89
2014,02,12,00,19,994.89
2014,02,12,00,20,994.89
2014,02,12,00,21,994.79
2014,02,12,00,22,994.75
2014,02,12,00,23,994.65
2014,02,12,00,24,994.68
2014,02,12,00,25,994.68
2014,02,12,00,26,994.58
2014,02,12,00,27,994.45
2014,02,12,00,28,994.38
2014,02,12,00,29,994.38
2014,02,12,00,30,994.31
2014,02,12,00,31,994.31
2014,02,12,00,32,994.28
2014,02,12,00,33,994.24
2014,02,12,00,34,994.21
2014,02,12,00,35,994.14
2014,02,12,00,36,994.04
2014,02,12,00,37,993.97
2014,02,12,00,38,993.93
2014,02,12,00,39,993.80
2014,02,12,00,40,993.70
2014,02,12,00,41,993.70
2014,02,12,00,42,993.60
2014,02,12,00,43,993.57
2014,02,12,00,44,993.53
2014,02,12,00,45,993.50
2014,02,12,00,46,993.47
2014,02,12,00,47,993.47
2014,02,12,00,48,993.43
2014,02,12,00,49,993.53
2014,02,12,00,50,993.57
2014,02,12,00,51,993.50
2014,02,12,00,52,993.30
2014,02,12,00,53,993.19
2014,02,12,00,54,993.16
2014,02,12,00,55,993.13
2014,02,12,00,56,993.23
2014,02,12,00,57,993.19
2014,02,12,00,58,993.13
2014,02,12,00,59,992.99
2014,02,12,01,00,993.03
2014,02,12,01,01,992.82
2014,02,12,01,02,992.75
2014,02,12,01,03,992.75
2014,02,12,01,04,992.75
2014,02,12,01,05,992.85
2014,02,12,01,06,992.82
2014,02,12,01,07,992.72
2014,02,12,01,08,992.72
2014,02,12,01,09,992.75
2014,02,12,01,10,992.72
2014,02,12,01,11,992.72
2014,02,12,01,12,992.82
2014,02,12,01,13,992.79
2014,02,12,01,14,992.79
2014,02,12,01,15,992.79
2014,02,12,01,16,992.79
2014,02,12,01,17,992.79
2014,02,12,01,18,992.75
2014,02,12,01,19,992.62
2014,02,12,01,20,992.62
2014,02,12,01,21,992.58
2014,02,12,01,22,992.52
2014,02,12,01,23,992.48
2014,02,12,01,24,992.38
2014,02,12,01,25,992.31
2014,02,12,01,26,992.38
2014,02,12,01,27,992.42
2014,02,12,01,28,992.42
2014,02,12,01,29,992.35
2014,02,12,01,30,992.38
2014,02,12,01,31,992.45
2014,02,12,01,32,992.52
2014,02,12,01,33,992.52
2014,02,12,01,34,992.45
2014,02,12,01,35,992.38
2014,02,12,01,36,992.38
2014,02,12,01,37,992.28
2014,02,12,01,38,992.31
2014,02,12,01,39,992.21
2014,02,12,01,40,992.28
2014,02,12,01,41,992.21
2014,02,12,01,42,992.08
2014,02,12,01,43,992.18
2014,02,12,01,44,992.25
2014,02,12,01,45,992.25
2014,02,12,01,46,992.21
2014,02,12,01,47,992.21
2014,02,12,01,48,992.18
2014,02,12,01,49,992.08
2014,02,12,01,50,992.04
2014,02,12,01,51,992.08
2014,02,12,01,52,992.04
2014,02,12,01,53,992.11
2014,02,12,01,54,992.11
2014,02,12,01,55,992.14
2014,02,12,01,56,992.18
2014,02,12,01,57,992.21
2014,02,12,01,58,992.25
2014,02,12,01,59,992.28
2014,02,12,02,00,992.28
2014,02,12,02,01,992.25
2014,02,12,02,02,992.18
2014,02,12,02,03,992.14
2014,02,12,02,04,992.11
2014,02,12,02,05,992.14
2014,02,12,02,06,992.08
2014,02,12,02,07,992.14
2014,02,12,02,08,992.11
2014,02,12,02,09,992.11
2014,02,12,02,10,992.08
2014,02,12,02,11,992.08
2014,02,12,02,12,992.08
2014,02,12,02,13,992.21
2014,02,12,02,14,992.31
2014,02,12,02,15,992.38
2014,02,12,02,16,992.48
2014,02,12,02,17,992.45
2014,02,12,02,18,992.42
2014,02,12,02,19,992.38
2014,02,12,02,20,992.42
2014,02,12,02,21,992.45
2014,02,12,02,22,992.45
2014,02,12,02,23,992.45
2014,02,12,02,24,992.55
2014,02,12,02,25,992.58
2014,02,12,02,26,992.62
2014,02,12,02,27,992.72
2014,02,12,02,28,992.69
2014,02,12,02,29,992.58
2014,02,12,02,30,992.55
2014,02,12,02,31,992.55
2014,02,12,02,32,992.55
2014,02,12,02,33,992.55
2014,02,12,02,34,992.55
2014,02,12,02,35,992.48
2014,02,12,02,36,992.38
2014,02,12,02,37,992.35
2014,02,12,02,38,992.35
2014,02,12,02,39,992.31
2014,02,12,02,40,992.28
2014,02,12,02,41,992.25
2014,02,12,02,42,992.21
2014,02,12,02,43,992.14
2014,02,12,02,44,992.08
2014,02,12,02,45,991.98
2014,02,12,02,46,991.91
2014,02,12,02,47,991.87
2014,02,12,02,48,991.84
2014,02,12,02,49,991.77
2014,02,12,02,50,991.84
2014,02,12,02,51,991.81
2014,02,12,02,52,991.81
2014,02,12,02,53,991.81
2014,02,12,02,54,991.87
2014,02,12,02,55,991.87
2014,02,12,02,56,992.04
2014,02,12,02,57,992.14
2014,02,12,02,58,992.14
2014,02,12,02,59,992.18
2014,02,12,03,00,992.28
2014,02,12,03,01,992.18
2014,02,12,03,02,992.11
2014,02,12,03,03,992.28
2014,02,12,03,04,992.28
2014,02,12,03,05,992.28
2014,02,12,03,06,992.28
2014,02,12,03,07,992.28
2014,02,12,03,08,992.25
2014,02,12,03,09,992.21
2014,02,12,03,10,992.28
2014,02,12,03,11,992.18
2014,02,12,03,12,992.18
2014,02,12,03,13,992.31
2014,02,12,03,14,992.28
2014,02,12,03,15,992.25
2014,02,12,03,16,992.21
2014,02,12,03,17,992.31
2014,02,12,03,18,992.28
2014,02,12,03,19,992.25
2014,02,12,03,20,992.28
2014,02,12,03,21,992.35
2014,02,12,03,22,992.45
2014,02,12,03,23,992.42
2014,02,12,03,24,992.42
2014,02,12,03,25,992.38
2014,02,12,03,26,992.45
2014,02,12,03,27,992.38
2014,02,12,03,28,992.45
2014,02,12,03,29,992.45
2014,02,12,03,30,992.45
2014,02,12,03,31,992.48
2014,02,12,03,32,992.48
2014,02,12,03,33,992.48
2014,02,12,03,34,992.58
2014,02,12,03,35,992.52
2014,02,12,03,36,992.55
2014,02,12,03,37,992.69
2014,02,12,03,38,992.65
2014,02,12,03,39,992.75
2014,02,12,03,40,992.75
2014,02,12,03,41,992.89
2014,02,12,03,42,992.89
2014,02,12,03,43,992.99
2014,02,12,03,44,992.99
2014,02,12,03,45,993.03
2014,02,12,03,46,993.06
2014,02,12,03,47,993.09
2014,02,12,03,48,993.18
2014,02,12,03,49,993.19
2014,02,12,03,50,993.19
2014,02,12,03,51,993.26
2014,02,12,03,52,993.26
2014,02,12,03,53,993.30
2014,02,12,03,54,993.23
2014,02,12,03,55,993.26
2014,02,12,03,56,993.36
2014,02,12,03,57,993.33
2014,02,12,03,58,993.36
2014,02,12,03,59,993.40
2014,02,12,04,00,993.47
2014,02,12,04,01,993.47
2014,02,12,04,02,993.53
2014,02,12,04,03,993.57
2014,02,12,04,04,993.63
2014,02,12,04,05,993.70
2014,02,12,04,06,993.74
2014,02,12,04,07,993.77
2014,02,12,04,08,993.77
2014,02,12,04,09,993.74
2014,02,12,04,10,993.63
2014,02,12,04,11,993.74
2014,02,12,04,12,993.80
2014,02,12,04,13,993.87
2014,02,12,04,14,993.91
2014,02,12,04,15,993.84
2014,02,12,04,16,993.84
2014,02,12,04,17,993.91
2014,02,12,04,18,993.87
2014,02,12,04,19,993.94
2014,02,12,04,20,993.97
2014,02,12,04,21,994.01
2014,02,12,04,22,994.11
2014,02,12,04,23,994.21
2014,02,12,04,24,994.24
2014,02,12,04,25,994.31
2014,02,12,04,26,994.38
2014,02,12,04,27,994.48
2014,02,12,04,28,994.48
2014,02,12,04,29,994.52
2014,02,12,04,30,994.58
2014,02,12,04,31,994.65
2014,02,12,04,32,994.75
2014,02,12,04,33,994.72
2014,02,12,04,34,994.68
2014,02,12,04,35,994.75
2014,02,12,04,36,994.79
2014,02,12,04,37,994.92
2014,02,12,04,38,994.92
2014,02,12,04,39,994.92
2014,02,12,04,40,994.99
2014,02,12,04,41,995.06
2014,02,12,04,42,995.12
2014,02,12,04,43,995.19
2014,02,12,04,44,995.23
2014,02,12,04,45,995.23
2014,02,12,04,46,995.29
2014,02,12,04,47,995.26
2014,02,12,04,48,995.29
2014,02,12,04,49,995.29
2014,02,12,04,50,995.40
2014,02,12,04,51,995.53
2014,02,12,04,52,995.50
2014,02,12,04,53,995.50
2014,02,12,04,54,995.53
2014,02,12,04,55,995.60
2014,02,12,04,56,995.70
2014,02,12,04,57,995.77
2014,02,12,04,58,995.73
2014,02,12,04,59,995.77
2014,02,12,05,00,995.77
2014,02,12,05,01,995.84
2014,02,12,05,02,995.94
2014,02,12,05,03,995.94
2014,02,12,05,04,996.01
2014,02,12,05,05,996.04
2014,02,12,05,06,996.11
2014,02,12,05,07,996.17
2014,02,12,05,08,996.27
2014,02,12,05,09,996.34
2014,02,12,05,10,996.38
2014,02,12,05,11,996.41
2014,02,12,05,12,996.48
2014,02,12,05,13,996.51
2014,02,12,05,14,996.58
2014,02,12,05,15,996.68
2014,02,12,05,16,996.72
2014,02,12,05,17,996.82
2014,02,12,05,18,996.85
2014,02,12,05,19,996.89
2014,02,12,05,20,996.89
2014,02,12,05,21,996.95
2014,02,12,05,22,996.99
2014,02,12,05,23,997.02
2014,02,12,05,24,997.12
2014,02,12,05,25,997.16
2014,02,12,05,26,997.19
2014,02,12,05,27,997.22
2014,02,12,05,28,997.29
2014,02,12,05,29,997.29
2014,02,12,05,30,997.36
2014,02,12,05,31,997.39
2014,02,12,05,32,997.50
2014,02,12,05,33,997.56
2014,02,12,05,34,997.60
2014,02,12,05,35,997.70
2014,02,12,05,36,997.73
2014,02,12,05,37,997.87
2014,02,12,05,38,997.90
2014,02,12,05,39,997.94
2014,02,12,05,40,998.00
2014,02,12,05,41,998.07
2014,02,12,05,42,998.07
2014,02,12,05,43,998.17
2014,02,12,05,44,998.21
2014,02,12,05,45,998.21
2014,02,12,05,46,998.31
2014,02,12,05,47,998.27
2014,02,12,05,48,998.34
2014,02,12,05,49,998.38
2014,02,12,05,50,998.38
2014,02,12,05,51,998.41
2014,02,12,05,52,998.54
2014,02,12,05,53,998.61
2014,02,12,05,54,998.68
2014,02,12,05,55,998.71
2014,02,12,05,56,998.82
2014,02,12,05,57,998.82
2014,02,12,05,58,998.85
2014,02,12,05,59,998.95
2014,02,12,06,00,998.95
2014,02,12,06,01,998.99
2014,02,12,06,02,999.09
2014,02,12,06,03,999.15
2014,02,12,06,04,999.22
2014,02,12,06,05,999.29
2014,02,12,06,06,999.36
2014,02,12,06,07,999.43
2014,02,12,06,08,999.49
2014,02,12,06,09,999.49
2014,02,12,06,10,999.56
2014,02,12,06,11,999.59
2014,02,12,06,12,999.66
2014,02,12,06,13,999.66
2014,02,12,06,14,999.70
2014,02,12,06,15,999.73
2014,02,12,06,16,999.76
2014,02,12,06,17,999.93
2014,02,12,06,18,999.97
2014,02,12,06,19,999.97
2014,02,12,06,20,1000.00
2014,02,12,06,21,1000.10
2014,02,12,06,22,1000.17
2014,02,12,06,23,1000.20
2014,02,12,06,24,1000.24
2014,02,12,06,25,1000.27
2014,02,12,06,26,1000.27
2014,02,12,06,27,1000.34
2014,02,12,06,28,1000.41
2014,02,12,06,29,1000.37
2014,02,12,06,30,1000.44
2014,02,12,06,31,1000.44
2014,02,12,06,32,1000.41
2014,02,12,06,33,1000.44
2014,02,12,06,34,1000.41
2014,02,12,06,35,1000.41
2014,02,12,06,36,1000.44
2014,02,12,06,37,1000.44
2014,02,12,06,38,1000.51
2014,02,12,06,39,1000.61
2014,02,12,06,40,1000.61
2014,02,12,06,41,1000.68
2014,02,12,06,42,1000.75
2014,02,12,06,43,1000.81
2014,02,12,06,44,1000.85
2014,02,12,06,45,1000.85
2014,02,12,06,46,1000.92
2014,02,12,06,47,1000.92
2014,02,12,06,48,1000.95
2014,02,12,06,49,1000.98
2014,02,12,06,50,1001.05
2014,02,12,06,51,1001.02
2014,02,12,06,52,1001.05
2014,02,12,06,53,1001.12
2014,02,12,06,54,1001.22
2014,02,12,06,55,1001.25
2014,02,12,06,56,1001.22
2014,02,12,06,57,1001.29
2014,02,12,06,58,1001.32
2014,02,12,06,59,1001.39
2014,02,12,07,00,1001.39
2014,02,12,07,01,1001.39
2014,02,12,07,02,1001.42
2014,02,12,07,03,1001.49
2014,02,12,07,04,1001.46
2014,02,12,07,05,1001.49
2014,02,12,07,06,1001.56
2014,02,12,07,07,1001.59
2014,02,12,07,08,1001.59
2014,02,12,07,09,1001.59
2014,02,12,07,10,1001.66
2014,02,12,07,11,1001.73
2014,02,12,07,12,1001.76
2014,02,12,07,13,1001.80
2014,02,12,07,14,1001.80
2014,02,12,07,15,1001.92
2014,02,12,07,16,1001.93
2014,02,12,07,17,1001.97
2014,02,12,07,18,1001.93
2014,02,12,07,19,1002.00
2014,02,12,07,20,1002.03
2014,02,12,07,21,1002.10
2014,02,12,07,22,1002.10
2014,02,12,07,23,1002.17
2014,02,12,07,24,1002.20
2014,02,12,07,25,1002.24
2014,02,12,07,26,1002.24
2014,02,12,07,27,1002.24
2014,02,12,07,28,1002.27
2014,02,12,07,29,1002.34
2014,02,12,07,30,1002.37
2014,02,12,07,31,1002.37
2014,02,12,07,32,1002.44
2014,02,12,07,33,1002.51
2014,02,12,07,34,1002.61
2014,02,12,07,35,1002.61
2014,02,12,07,36,1002.61
2014,02,12,07,37,1002.71
2014,02,12,07,38,1002.74
2014,02,12,07,39,1002.71
2014,02,12,07,40,1002.81
2014,02,12,07,41,1002.88
2014,02,12,07,42,1002.95
2014,02,12,07,43,1002.95
2014,02,12,07,44,1002.91
2014,02,12,07,45,1003.01
2014,02,12,07,46,1003.01
2014,02,12,07,47,1003.05
2014,02,12,07,48,1003.08
2014,02,12,07,49,1003.15
2014,02,12,07,50,1003.15
2014,02,12,07,51,1003.15
2014,02,12,07,52,1003.18
2014,02,12,07,53,1003.32
2014,02,12,07,54,1003.42
2014,02,12,07,55,1003.49
2014,02,12,07,56,1003.49
2014,02,12,07,57,1003.59
2014,02,12,07,58,1003.62
2014,02,12,07,59,1003.62
2014,02,12,08,00,1003.66
2014,02,12,08,01,1003.73
2014,02,12,08,02,1003.73
2014,02,12,08,03,1003.76
2014,02,12,08,04,1003.76
2014,02,12,08,05,1003.83
2014,02,12,08,06,1003.86
2014,02,12,08,07,1003.90
2014,02,12,08,08,1003.93
2014,02,12,08,09,1003.93
2014,02,12,08,10,1004.00
2014,02,12,08,11,1004.00
2014,02,12,08,12,1004.00
2014,02,12,08,13,1004.03
2014,02,12,08,14,1004.06
2014,02,12,08,15,1004.13
2014,02,12,08,16,1004.13
2014,02,12,08,17,1004.17
2014,02,12,08,18,1004.13
2014,02,12,08,19,1004.20
2014,02,12,08,20,1004.20
2014,02,12,08,21,1004.23
2014,02,12,08,22,1004.27
2014,02,12,08,23,1004.27
2014,02,12,08,24,1004.27
2014,02,12,08,25,1004.30
2014,02,12,08,26,1004.34
2014,02,12,08,27,1004.30
2014,02,12,08,28,1004.37
2014,02,12,08,29,1004.37
2014,02,12,08,30,1004.40
2014,02,12,08,31,1004.44
2014,02,12,08,32,1004.47
2014,02,12,08,33,1004.44
2014,02,12,08,34,1004.47
2014,02,12,08,35,1004.54
2014,02,12,08,36,1004.50
2014,02,12,08,37,1004.57
2014,02,12,08,38,1004.61
2014,02,12,08,39,1004.57
2014,02,12,08,40,1004.61
2014,02,12,08,41,1004.67
2014,02,12,08,42,1004.67
2014,02,12,08,43,1004.74
2014,02,12,08,44,1004.81
2014,02,12,08,45,1004.81
2014,02,12,08,46,1004.88
2014,02,12,08,47,1004.88
2014,02,12,08,48,1004.95
2014,02,12,08,49,1004.91
2014,02,12,08,50,1004.95
2014,02,12,08,51,1005.08
2014,02,12,08,52,1005.18
2014,02,12,08,53,1005.18
2014,02,12,08,54,1005.25
2014,02,12,08,55,1005.25
2014,02,12,08,56,1005.25
2014,02,12,08,57,1005.28
2014,02,12,08,58,1005.35
2014,02,12,08,59,1005.39
2014,02,12,09,00,1005.45
2014,02,12,09,01,1005.52
2014,02,12,09,02,1005.52
2014,02,12,09,03,1005.59
2014,02,12,09,04,1005.66
2014,02,12,09,05,1005.72
2014,02,12,09,06,1005.72
2014,02,12,09,07,1005.79
2014,02,12,09,08,1005.86
2014,02,12,09,09,1005.79
2014,02,12,09,10,1005.93
2014,02,12,09,11,1005.99
2014,02,12,09,12,1005.99
2014,02,12,09,13,1005.93
2014,02,12,09,14,1006.03
2014,02,12,09,15,1006.10
2014,02,12,09,16,1006.13
2014,02,12,09,17,1006.10
2014,02,12,09,18,1006.16
2014,02,12,09,19,1006.20
2014,02,12,09,20,1006.29
2014,02,12,09,21,1006.27
2014,02,12,09,22,1006.30
2014,02,12,09,23,1006.33
2014,02,12,09,24,1006.33
2014,02,12,09,25,1006.40
2014,02,12,09,26,1006.44
2014,02,12,09,27,1006.47
2014,02,12,09,28,1006.50
2014,02,12,09,29,1006.54
2014,02,12,09,30,1006.60
2014,02,12,09,31,1006.64
2014,02,12,09,32,1006.67
2014,02,12,09,33,1006.64
2014,02,12,09,34,1006.64
2014,02,12,09,35,1006.71
2014,02,12,09,36,1006.71
2014,02,12,09,37,1006.77
2014,02,12,09,38,1006.84
2014,02,12,09,39,1006.81
2014,02,12,09,40,1006.84
2014,02,12,09,41,1006.88
2014,02,12,09,42,1006.91
2014,02,12,09,43,1006.91
2014,02,12,09,44,1006.94
2014,02,12,09,45,1006.98
2014,02,12,09,46,1006.94
2014,02,12,09,47,1007.01
2014,02,12,09,48,1007.01
2014,02,12,09,49,1007.04
2014,02,12,09,50,1007.08
2014,02,12,09,51,1007.11
2014,02,12,09,52,1007.11
2014,02,12,09,53,1007.11
2014,02,12,09,54,1007.11
2014,02,12,09,55,1007.15
2014,02,12,09,56,1007.15
2014,02,12,09,57,1007.18
2014,02,12,09,58,1007.18
2014,02,12,09,59,1007.21
2014,02,12,10,00,1007.21
2014,02,12,10,01,1007.25
2014,02,12,10,02,1007.28
2014,02,12,10,03,1007.28
2014,02,12,10,04,1007.32
2014,02,12,10,05,1007.32
2014,02,12,10,06,1007.35
2014,02,12,10,07,1007.35
2014,02,12,10,08,1007.38
2014,02,12,10,09,1007.21
2014,02,12,10,10,1007.35
2014,02,12,10,11,1007.35
2014,02,12,10,12,1007.32
2014,02,12,10,13,1007.35
2014,02,12,10,14,1007.42
2014,02,12,10,15,1007.42
2014,02,12,10,16,1007.38
2014,02,12,10,17,1007.48
2014,02,12,10,18,1007.39
2014,02,12,10,19,1007.42
2014,02,12,10,20,1007.45
2014,02,12,10,21,1007.42
2014,02,12,10,22,1007.45
2014,02,12,10,23,1007.48
2014,02,12,10,24,1007.48
2014,02,12,10,25,1007.45
2014,02,12,10,26,1007.45
2014,02,12,10,27,1007.52
2014,02,12,10,28,1007.52
2014,02,12,10,29,1007.59
2014,02,12,10,30,1007.62
2014,02,12,10,31,1007.69
2014,02,12,10,32,1007.65
2014,02,12,10,33,1007.69
2014,02,12,10,34,1007.76
2014,02,12,10,35,1007.79
2014,02,12,10,36,1007.82
2014,02,12,10,37,1007.86
2014,02,12,10,38,1007.86
2014,02,12,10,39,1007.89
2014,02,12,10,40,1007.96
2014,02,12,10,41,1008.03
2014,02,12,10,42,1008.03
2014,02,12,10,43,1008.06
2014,02,12,10,44,1008.13
2014,02,12,10,45,1008.13
2014,02,12,10,46,1008.23
2014,02,12,10,47,1008.26
2014,02,12,10,48,1008.26
2014,02,12,10,49,1008.33
2014,02,12,10,50,1008.37
2014,02,12,10,51,1008.40
2014,02,12,10,52,1008.47
2014,02,12,10,53,1008.53
2014,02,12,10,54,1008.53
2014,02,12,10,55,1008.64
2014,02,12,10,56,1008.64
2014,02,12,10,57,1008.70
2014,02,12,10,58,1008.74
2014,02,12,10,59,1008.81
2014,02,12,11,00,1008.81
2014,02,12,11,01,1008.87
2014,02,12,11,02,1008.94
2014,02,12,11,03,1008.91
2014,02,12,11,04,1008.97
2014,02,12,11,05,1009.01
2014,02,12,11,06,1009.01
2014,02,12,11,07,1009.04
2014,02,12,11,08,1009.11
2014,02,12,11,09,1009.14
2014,02,12,11,10,1009.18
2014,02,12,11,11,1009.18
2014,02,12,11,12,1009.14
2014,02,12,11,13,1009.21
2014,02,12,11,14,1009.28
2014,02,12,11,15,1009.28
2014,02,12,11,16,1009.25
2014,02,12,11,17,1009.31
2014,02,12,11,18,1009.28
2014,02,12,11,19,1009.31
2014,02,12,11,20,1009.28
2014,02,12,11,21,1009.31
2014,02,12,11,22,1009.31
2014,02,12,11,23,1009.35
2014,02,12,11,24,1009.38
2014,02,12,11,25,1009.38
2014,02,12,11,26,1009.45
2014,02,12,11,27,1009.45
2014,02,12,11,28,1009.48
2014,02,12,11,29,1009.55
2014,02,12,11,30,1009.55
2014,02,12,11,31,1009.55
2014,02,12,11,32,1009.58
2014,02,12,11,33,1009.62
2014,02,12,11,34,1009.65
2014,02,12,11,35,1009.75
2014,02,12,11,36,1009.79
2014,02,12,11,37,1009.86
2014,02,12,11,38,1009.92
2014,02,12,11,39,1009.96
2014,02,12,11,40,1010.02
2014,02,12,11,41,1010.09
2014,02,12,11,42,1010.09
2014,02,12,11,43,1010.19
2014,02,12,11,44,1010.16
2014,02,12,11,45,1010.16
2014,02,12,11,46,1010.16
2014,02,12,11,47,1010.19
2014,02,12,11,48,1010.19
2014,02,12,11,49,1010.19
2014,02,12,11,50,1010.26
2014,02,12,11,51,1010.26
2014,02,12,11,52,1010.23
2014,02,12,11,53,1010.23
2014,02,12,11,54,1010.26
2014,02,12,11,55,1010.19
2014,02,12,11,56,1010.26
2014,02,12,11,57,1010.26
2014,02,12,11,58,1010.23
2014,02,12,11,59,1010.23
2014,02,12,12,00,1010.26
2014,02,12,12,01,1010.26
2014,02,12,12,02,1010.26
2014,02,12,12,03,1010.30
2014,02,12,12,04,1010.30
2014,02,12,12,05,1010.33
2014,02,12,12,06,1010.30
2014,02,12,12,07,1010.30
2014,02,12,12,08,1010.30
2014,02,12,12,09,1010.30
2014,02,12,12,10,1010.26
2014,02,12,12,11,1010.26
2014,02,12,12,12,1010.30
2014,02,12,12,13,1010.26
2014,02,12,12,14,1010.30
2014,02,12,12,15,1010.26
2014,02,12,12,16,1010.26
2014,02,12,12,17,1010.30
2014,02,12,12,18,1010.33
2014,02,12,12,19,1010.30
2014,02,12,12,20,1010.26
2014,02,12,12,21,1010.26
2014,02,12,12,22,1010.23
2014,02,12,12,23,1010.26
2014,02,12,12,24,1010.23
2014,02,12,12,25,1010.19
2014,02,12,12,26,1010.23
2014,02,12,12,27,1010.26
2014,02,12,12,28,1010.30
2014,02,12,12,29,1010.30
2014,02,12,12,30,1010.26
2014,02,12,12,31,1010.19
2014,02,12,12,32,1010.16
2014,02,12,12,33,1010.19
2014,02,12,12,34,1010.23
2014,02,12,12,35,1010.30
2014,02,12,12,36,1010.26
2014,02,12,12,37,1010.30
2014,02,12,12,38,1010.26
2014,02,12,12,39,1010.30
2014,02,12,12,40,1010.30
2014,02,12,12,41,1010.33
2014,02,12,12,42,1010.33
2014,02,12,12,43,1010.36
2014,02,12,12,44,1010.36
2014,02,12,12,45,1010.33
2014,02,12,12,46,1010.36
2014,02,12,12,47,1010.36
2014,02,12,12,48,1010.33
2014,02,12,12,49,1010.43
2014,02,12,12,50,1010.40
2014,02,12,12,51,1010.40
2014,02,12,12,52,1010.43
2014,02,12,12,53,1010.40
2014,02,12,12,54,1010.46
2014,02,12,12,55,1010.46
2014,02,12,12,56,1010.46
2014,02,12,12,57,1010.43
2014,02,12,12,58,1010.43
2014,02,12,12,59,1010.46
2014,02,12,13,00,1010.50
2014,02,12,13,01,1010.50
2014,02,12,13,02,1010.50
2014,02,12,13,03,1010.53
2014,02,12,13,04,1010.50
2014,02,12,13,05,1010.46
2014,02,12,13,06,1010.43
2014,02,12,13,07,1010.36
2014,02,12,13,08,1010.33
2014,02,12,13,09,1010.36
2014,02,12,13,10,1010.36
2014,02,12,13,11,1010.36
2014,02,12,13,12,1010.30
2014,02,12,13,13,1010.30
2014,02,12,13,14,1010.33
2014,02,12,13,15,1010.33
2014,02,12,13,16,1010.40
2014,02,12,13,17,1010.36
2014,02,12,13,18,1010.33
2014,02,12,13,19,1010.30
2014,02,12,13,20,1010.30
2014,02,12,13,21,1010.33
2014,02,12,13,22,1010.33
2014,02,12,13,23,1010.36
2014,02,12,13,24,1010.33
2014,02,12,13,25,1010.33
2014,02,12,13,26,1010.26
2014,02,12,13,27,1010.26
2014,02,12,13,28,1010.19
2014,02,12,13,29,1010.23
2014,02,12,13,30,1010.23
2014,02,12,13,31,1010.19
2014,02,12,13,32,1010.09
2014,02,12,13,33,1010.09
2014,02,12,13,34,1010.02
2014,02,12,13,35,1010.06
2014,02,12,13,36,1010.06
2014,02,12,13,37,1010.02
2014,02,12,13,38,1010.06
2014,02,12,13,39,1010.02
2014,02,12,13,40,1010.02
2014,02,12,13,41,1010.06
2014,02,12,13,42,1010.06
2014,02,12,13,43,1010.06
2014,02,12,13,44,1010.09
2014,02,12,13,45,1010.02
2014,02,12,13,46,1010.06
2014,02,12,13,47,1010.13
2014,02,12,13,48,1010.09
2014,02,12,13,49,1010.13
2014,02,12,13,50,1010.13
2014,02,12,13,51,1010.13
2014,02,12,13,52,1010.13
2014,02,12,13,53,1010.13
2014,02,12,13,54,1010.06
2014,02,12,13,55,1010.06
2014,02,12,13,56,1009.99
2014,02,12,13,57,1009.92
2014,02,12,13,58,1009.92
2014,02,12,13,59,1009.92
2014,02,12,14,00,1009.89
2014,02,12,14,01,1009.86
2014,02,12,14,02,1009.86
2014,02,12,14,03,1009.86
2014,02,12,14,04,1009.89
2014,02,12,14,05,1009.89
2014,02,12,14,06,1009.89
2014,02,12,14,07,1009.79
2014,02,12,14,08,1009.75
2014,02,12,14,09,1009.75
2014,02,12,14,10,1009.75
2014,02,12,14,11,1009.72
2014,02,12,14,12,1009.72
2014,02,12,14,13,1009.79
2014,02,12,14,14,1009.79
2014,02,12,14,15,1009.75
2014,02,12,14,16,1009.79
2014,02,12,14,17,1009.75
2014,02,12,14,18,1009.82
2014,02,12,14,19,1009.82
2014,02,12,14,20,1009.79
2014,02,12,14,21,1009.82
2014,02,12,14,22,1009.82
2014,02,12,14,23,1009.89
2014,02,12,14,24,1009.86
2014,02,12,14,25,1009.86
2014,02,12,14,26,1009.82
2014,02,12,14,27,1009.82
2014,02,12,14,28,1009.79
2014,02,12,14,29,1009.75
2014,02,12,14,30,1009.75
2014,02,12,14,31,1009.72
2014,02,12,14,32,1009.69
2014,02,12,14,33,1009.62
2014,02,12,14,34,1009.62
2014,02,12,14,35,1009.58
2014,02,12,14,36,1009.55
2014,02,12,14,37,1009.55
2014,02,12,14,38,1009.52
2014,02,12,14,39,1009.52
2014,02,12,14,40,1009.52
2014,02,12,14,41,1009.52
2014,02,12,14,42,1009.55
2014,02,12,14,43,1009.58
2014,02,12,14,44,1009.65
2014,02,12,14,45,1009.65
2014,02,12,14,46,1009.72
2014,02,12,14,47,1009.65
2014,02,12,14,48,1009.69
2014,02,12,14,49,1009.69
2014,02,12,14,50,1009.72
2014,02,12,14,51,1009.75
2014,02,12,14,52,1009.75
2014,02,12,14,53,1009.79
2014,02,12,14,54,1009.79
2014,02,12,14,55,1009.79
2014,02,12,14,56,1009.75
2014,02,12,14,57,1009.72
2014,02,12,14,58,1009.75
2014,02,12,14,59,1009.72
2014,02,12,15,00,1009.75
2014,02,12,15,01,1009.79
2014,02,12,15,02,1009.79
2014,02,12,15,03,1009.79
2014,02,12,15,04,1009.75
2014,02,12,15,05,1009.75
2014,02,12,15,06,1009.79
2014,02,12,15,07,1009.79
2014,02,12,15,08,1009.79
2014,02,12,15,09,1009.79
2014,02,12,15,10,1009.79
2014,02,12,15,11,1009.79
2014,02,12,15,12,1009.75
2014,02,12,15,13,1009.79
2014,02,12,15,14,1009.75
2014,02,12,15,15,1009.72
2014,02,12,15,16,1009.69
2014,02,12,15,17,1009.69
2014,02,12,15,18,1009.69
2014,02,12,15,19,1009.69
2014,02,12,15,20,1009.65
2014,02,12,15,21,1009.62
2014,02,12,15,22,1009.62
2014,02,12,15,23,1009.58
2014,02,12,15,24,1009.55
2014,02,12,15,25,1009.52
2014,02,12,15,26,1009.52
2014,02,12,15,27,1009.55
2014,02,12,15,28,1009.55
2014,02,12,15,29,1009.52
2014,02,12,15,30,1009.48
2014,02,12,15,31,1009.45
2014,02,12,15,32,1009.38
2014,02,12,15,33,1009.38
2014,02,12,15,34,1009.35
2014,02,12,15,35,1009.38
2014,02,12,15,36,1009.35
2014,02,12,15,37,1009.28
2014,02,12,15,38,1009.31
2014,02,12,15,39,1009.31
2014,02,12,15,40,1009.38
2014,02,12,15,41,1009.42
2014,02,12,15,42,1009.42
2014,02,12,15,43,1009.42
2014,02,12,15,44,1009.48
2014,02,12,15,45,1009.52
2014,02,12,15,46,1009.52
2014,02,12,15,47,1009.55
2014,02,12,15,48,1009.58
2014,02,12,15,49,1009.55
2014,02,12,15,50,1009.58
2014,02,12,15,51,1009.58
2014,02,12,15,52,1009.55
2014,02,12,15,53,1009.52
2014,02,12,15,54,1009.52
2014,02,12,15,55,1009.55
2014,02,12,15,56,1009.55
2014,02,12,15,57,1009.55
2014,02,12,15,58,1009.52
2014,02,12,15,59,1009.52
2014,02,12,16,00,1009.48
2014,02,12,16,01,1009.48
2014,02,12,16,02,1009.45
2014,02,12,16,03,1009.45
2014,02,12,16,04,1009.42
2014,02,12,16,05,1009.38
2014,02,12,16,06,1009.31
2014,02,12,16,07,1009.31
2014,02,12,16,08,1009.31
2014,02,12,16,09,1009.25
2014,02,12,16,10,1009.28
2014,02,12,16,11,1009.28